Hourly Data Report for October 10, 2016

All times are specified in Local Standard Time (LST). Add 1 hour to adjust for Daylight Saving Time where and when it is observed.

EUREKA CLIMATE
NUNAVUT

79°59'21.000" N
85°56'02.000" W
10.00 m
2401199
71613
NEK

Download Data

Hourly Data (October 2016)
Hourly Data Report for October 10, 2016
Temp Definition
°C
Dew Point Temp Definition
°C
Rel Hum Definition
%
Wind Dir Definition
10's deg

Wind Spd Definition
km/h
Visibility Definition
km
Stn Press Definition
kPa
Hmdx Definition


Wind Chill Definition


Weather Definition


TIME
00:00 -20.7 -22.4 86 4 2   101.20   -22 LegendNANA
01:00 -19.5 -21.1 88 9 3   101.23   -22 LegendNANA
02:00 -20.9 -22.7 86 4 3   101.20   -24 LegendNANA
03:00 -20.2 -21.8 87 6 2   101.21   -22 LegendNANA
04:00 -21.8 -23.6 85 5 2   101.19   -24 LegendNANA
05:00 -21.3 -23.1 86 3 3   101.16   -24 LegendNANA
06:00 -19.5 -21.1 87 5 2   101.12   -21 LegendNANA
07:00 -17.7 -19.0 89 11 5   101.07   -22 LegendNANA
08:00 -16.8 -18.1 90 11 3   101.04   -19 LegendNANA
09:00 -15.6 -16.8 91 10 1   101.00   -16 LegendNANA
10:00 -14.9 -16.0 92 1 3   100.94   -17 LegendNANA
11:00 -13.4 -14.3 93 6 2   100.91   -15 LegendNANA
12:00 -14.4 -15.6 91 11 4   100.88   -17 LegendNANA
13:00 -15.3 -16.5 91 11 5   100.91   -19 LegendNANA
14:00 -14.9 -16.0 92 10 2   100.91   -16 LegendNANA
15:00 -14.4 -15.5 92 13 2   100.90   -16 LegendNANA
16:00 -14.4 -15.4 92 12 2   100.91   -16 LegendNANA
17:00 -14.1 -15.1 92 9 2   100.89   -15 LegendNANA
18:00 -13.6 -14.6 92 12 4   100.90   -16 LegendNANA
19:00 -13.1 -14.1 92 12 3   100.90   -15 LegendNANA
20:00 -13.1 -14.0 93 12 3   100.92   -15 LegendNANA
21:00 -13.3 -14.2 93 10 3   100.94   -15 LegendNANA
22:00 -13.0 -13.9 93 10 3   100.95   -15 LegendNANA
23:00 -13.1 -14.0 93 9 1   101.00   -14 LegendNANA

Notes on Data Quality.

Legend

  • E = Estimated
  • M = Missing
  • NA = Not Available
  • ‡ = Partner data that is not subject to review by the National Climate Archives
Date modified: